Find Tian Lian 2-04

NORAD ID: 63361 Int'l Des: 2025-062 Owner: CAST Country: CN operational
HEOCIRCULARGSO

Current View

Loading 3D Globe...

About Tian Lian 2-04

Tian Lian 2-04 (NORAD 63361) is a satellite launched Mar 26, 2025 by CAST of CN. It operates in HEO, CIRCULAR, GSO orbit with a mass of 5000.00 kg.

Upcoming Passes

Passes for default location (London). Set your location on the main map for personalized predictions.

Altitude History

Loading altitude history...

Two-Line Element Set

1 63361U 25062A 26195.14722175 -.00000137 00000-0 00000+0 0 9997
2 63361 4.3072 274.0521 0031633 9.3409 141.6364 1.00270765 4871
Epoch: Jul 14, 2026 • Age: 8 hours

Current Status

Altitude 35810.1 km
Apogee / Perigee N/A
Velocity 3.07 km/s
Sub-Earth Point -4.30°S, 79.66°E
Launch Date Mar 26, 2025
Age 1.3 years
Type other

Technical Details

Classification Payload
Mass 5000.00 kg
Dry Mass 2000.00 kg
Total Mass 5000.00 kg
Length 6.00 m
Diameter 2.50 m
Span 20.00 m
Shape Box + 2 Pan + Dish
Manufacturer CAST
Bus Type DFH-4
Phase Status In Orbit
Owner/State CAST/CN

Most Searched